Tracking 19706 objects as of 15-Jun-2019
HD Live streaming from Space Station
objects crossing your sky now

CZ-4 DEB

Track CZ-4 DEB now!
10-day predictions


NORAD ID: 26128
Int'l Code: 1999-057Q
Perigee: 606.9 km
Apogee: 658.6 km
Inclination: 98.6 °
Period: 97.2 minutes
Semi major axis: 7003 km
RCS: 0.04 m2 (small)
Launch date: October 14, 1999
Source: People's Republic of China (PRC)
Launch site: Taiyaun Space Center, China (TSC)

Note: This is SATELLITE DEBRIS
aabbcc
Your satellite tracking list
Your tracking list is empty




NASA's NSSDC Master Catalog

Two Line Element Set (TLE):
1 26128U 99057Q   19165.76879650 +.00000197 +00000-0 +33232-4 0  9993
2 26128 098.6416 096.0050 0036880 316.0500 095.5105 14.81174787034915
Source of the keplerian elements: AFSPC